Regional Weather Roundup
Issued by NWS

Home | Current Version | Previous Version | Text Only | Print | Product List | Glossary On
Versions: 1 2 3 4 5 6 7 8 9 10 11 12 13 14 15 16 17 18 19 20 21 22 23 24 25 26 27 28 29 30 31 32 33 34 35 36 37 38 39 40 41 42 43 44 45 46 47 48 49 50
000
ASUS44 KBMX 312210
RWRAL

ALABAMA REGIONAL WEATHER ROUNDUP
NATIONAL WEATHER SERVICE BIRMINGHAM AL
500 PM CDT TUE MAY 31 2016

NOTE: "FAIR" INDICATES FEW OR NO CLOUDS BELOW 12,000 FEET
WITH NO SIGNIFICANT WEATHER AND/OR OBSTRUCTIONS TO VISIBILITY.

THE REMARK "TC" DENOTES TEMPERATURE IN DEGREES CELSIUS.

ALZ001>011-014-016>018-020-312300-
NORTH ALABAMA

CITY           SKY/WX    TMP DP  RH WIND       PRES   REMARKS
MUSCLE SHOALS  CLOUDY    86  60  41 S6        29.91F
HUNTSVILLE     PTSUNNY   88  64  44 W7        29.90S
DECATUR        CLOUDY    84  64  50 W9        29.91S
HALEYVILLE     FAIR      82  63  52 CALM      29.95S
GADSDEN        PTSUNNY   84  64  50 SW17G24   29.91R
$$

ALZ012-013-022-023-030>036-040>044-312300-
WEST CENTRAL ALABAMA

CITY           SKY/WX    TMP DP  RH WIND       PRES   REMARKS
TUSCALOOSA     CLOUDY    76  65  68 NE7       29.90F
$$

ALZ015-024>027-033>036-040>044-312300-
CENTRAL ALABAMA

CITY           SKY/WX    TMP DP  RH WIND       PRES   REMARKS
BIRMINGHAM     CLOUDY    76  66  71 W9        29.96R
MONTGOMERY     SUNNY     96  57  27 NE6       29.86F HX  95
SHELBY CO ARPT CLOUDY    83  62  49 N13G20    29.92R
MAXWELL AFB    SUNNY     93  53  25 NE7       29.86F HX  90
GREENVILLE     FAIR      91  59  33 S6        29.87S HX  90
$$

ALZ019-021-028-029-037-038-045>048-312300-
EAST CENTRAL ALABAMA

CITY           SKY/WX    TMP DP  RH WIND       PRES   REMARKS
ANNISTON       SUNNY     89  56  32 W5        29.89S
ALEXANDER CITY CLOUDY    88  73  62 CALM      29.90F HX  96
AUBURN         SUNNY    N/A N/A N/A W9        29.90S
$$

ALZ051>064-312300-
SOUTHWEST ALABAMA

CITY           SKY/WX    TMP DP  RH WIND       PRES   REMARKS
MOBILE         MOSUNNY   85  72  65 S14       29.90S HX  91
BROOKLEY FIELD LGT RAIN  86  74  67 S13G20    29.90F HX  94
EVERGREEN      CLOUDY    81  67  62 S18       29.93R
$$

ALZ049-050-065>069-312300-
SOUTHEAST ALABAMA

CITY           SKY/WX    TMP DP  RH WIND       PRES   REMARKS
DOTHAN         TSTM      82  65  56 SW29G38   29.92R
OZARK          CLOUDY    80  67  63 SW10      29.88S
TROY           CLOUDY    94  64  37 N7        29.88S HX  95
EUFAULA        FAIR      97  61  30 CALM      29.85F HX  97
$$



USA.gov is the U.S. government's official web portal to all federal, state and local government web resources and services.